STARLINK-2041, 47657

Orbit data source: Space-Track

STARLINK-2041, 47657 is a payload satellite owned by SpaceX/Seattle (US) in LEO that was launched on Tue, 16 Feb 2021 UTC via an FALCON 9 launch vehicle from the Air Force Eastern Test Range (AFETR). Payload-class satellites include a variety of spacecraft equipped with specific instruments for various scientific and technological missions. These include communications satellites like Starlink; space stations such as the ISS; scientific satellites like the Hubble; Earth observation satellites from companies like Planet Labs, Umbra, and HawkEye 360; GPS; miniature CubeSats for education and research; and military/defense satellites.

Not visible in the next 10 days
Identifier
47657, 2021-012AP
Orbit
LEO
Country
Flag of USUS
Related business
Manufacturer
SpaceX/Seattle
Mission
Partially operational Commercial Communications
Bus & Motor
STARLINK, Unknown motor
Mass
260 kg wet, ~248 kg dry
Launch date (UTC)
2021-02-16 (5 years ago)
Launch vehicle
FALCON 9
Launch site
Air Force Eastern Test Range (AFETR)
Object type
Payload
Rocket body
Debris
Shape & HBR
Box + 1 Pan, 10.1 m
Radar Cross Section
13.562 m², Large (>1 m²)

Expand to show TLE details & history
Last TLE update: 2 days ago

TLE from 2 days ago
0 STARLINK-2041
1 47657U 21012AP  26171.45481336  .00124436  00000-0  65513-3 0  9999
2 47657  53.1523 281.2907 0007033 325.9389  34.1181 15.79811305296185
Epoch: 2026-06-20T10:54Z
TLE epoch observation values (Epoch: 2026-06-20T10:54:55.874Z)
Latitude
-0.00001°
Longitude
-151.11131°
Altitude
327.988 km
Speed
7.715 km/s
True Right ascension
18h 45m 09s
True Declination
0° 00' 00"
Sunlit
Object was in full shadow at epoch
Visualization orbit readout
Latitude
Unknown
Longitude
Unknown
Altitude
Unknown
Speed
Unknown
Apparent Right ascension
Unknown
Apparent Declination
Unknown
Sunlit
N/A
Visualization observer readout
Local Sidereal Time
21:36:17
Azimuth
Unknown
Elevation
Unknown
Doppler factor
Unknown
Orbital elements
Apogee altitude
335.957 km
Perigee altitude
326.519 km
Semi-major axis
6,709.375 km
Eccentricity
0.0007
Inclination
53.1523°
RAAN
281.2907°
Arg. of periapsis
325.9389°
True anomaly
34.16334°
Mean anomaly
34.1181°
Eccentric anomaly
34.14072°
Mean motion
3.9493 °/min
Orbital period
91.16 mins
BSTAR
0.00065513
Loading maneuver chart data...
Computing Atmospheric mass density...

Documentation

Showing up to 5 results
|